To NAV CANADA Home Page Login to a new session Search on AWWS site Feedback and Comments Disclaimer Vers la page française équivalente Tips FAQ What's new on the site To the Forecasts and Observations / NOTAM section To "File a Flight Plan" website Publications and other links Update of the User's profile FIC Telephone Numbers My Weather Data Folder Route Weather Data Regional Weather Data Local Weather Data To the Forecasts and Observations / NOTAM section
Request Generated 07/30/2016 at 14:57:14 UTC . Weather information available at that time is displayed.

METAR/TAF

NAUJAAT/NU    

LWIS CYUT 301400Z AUTO 12009KT 06/06 A2998=
LWIS CYUT 301300Z AUTO 11009KT 07/07 A2997=
LWIS CYUT 301200Z AUTO 12011KT 05/05 A2997=

*** REMARK        : Forecast period has ended; this was the last TAF issued
*** REMARQUE : La période de prévision est échue; ceci était le dernier TAF qui a été émis
TAF CYUT 291838Z 2919/2922 12015KT P6SM SCT015 BKN080 TEMPO 2919/2922
P6SM -SHRA BKN015
RMK NXT FCST WILL BE ISSUED AT 301545Z=
Your time UTC time
Weather data provided by Environment Canada and NAV CANADA